Wind_Speed
20 19 19 19 21 18 18 19 19 19 18 18 17 17 16 14 14 13 13 12 11 10 9 9 9 10 10 11 11 12 11 11 11 11 11 12 12 12 11 11 11 11 11 11 11 10 10 10 10
19 19 19 20 20 17 18 19 20 19 18 18 17 17 16 14 14 13 12 11 10 9 8 8 8 8 9 10 11 11 11 11 10 11 11 11 11 12 11 11 11 11 11 11 11 10 10 10 10
19 19 20 20 18 18 19 19 20 19 18 18 17 17 16 15 14 12 11 11 10 9 8 8 7 8 9 9 9 10 11 10 10 10 10 10 10 10 10 11 11 11 11 10 10 10 10 9 9
19 20 21 19 18 19 19 19 20 20 19 18 18 17 16 15 14 12 11 10 9 8 8 7 7 8 9 9 9 9 10 10 10 9 9 9 10 10 10 10 11 10 10 9 9 9 9 9 9
18 21 19 18 19 19 20 20 20 20 20 19 18 18 17 16 14 12 11 9 8 7 7 7 7 8 8 8 8 8 8 9 9 9 8 9 10 10 10 9 9 9 9 9 9 8 9 9 9
18 19 17 18 18 19 20 20 21 21 20 19 18 17 17 16 15 13 12 10 8 7 7 7 7 7 7 8 8 8 8 8 8 9 9 9 9 9 10 9 8 8 8 8 8 8 8 8 8
17 16 16 17 17 18 19 20 20 20 20 19 18 18 17 16 15 13 12 10 9 8 7 7 7 7 7 7 8 8 8 8 8 8 8 8 8 9 9 8 8 8 8 8 8 8 8 8 8
14 15 14 16 16 17 18 19 20 20 20 19 18 18 17 16 15 13 12 10 9 8 7 6 7 7 6 7 7 7 8 8 7 7 7 8 8 8 8 8 8 8 8 7 7 7 7 7 7
13 13 12 13 14 15 16 17 18 18 19 19 19 18 17 16 15 13 12 11 10 8 8 7 6 6 6 6 6 7 7 7 6 6 7 7 8 8 8 7 7 8 8 7 7 7 6 6 6
11 10 11 12 13 14 15 16 16 17 18 18 18 17 17 16 16 14 13 12 11 9 8 7 6 6 6 5 5 6 6 6 6 6 6 6 7 7 7 7 7 8 8 7 7 7 6 6 6
9 10 10 10 11 12 13 14 15 16 17 17 17 17 17 17 16 14 13 12 11 9 8 7 6 5 6 5 5 5 5 5 6 6 6 6 6 6 7 7 7 7 7 7 6 6 5 5 5
8 8 8 9 9 10 12 13 14 15 15 16 16 16 17 17 16 15 14 12 11 10 9 8 6 5 5 5 5 5 5 5 5 5 6 6 6 6 6 5 6 6 6 6 5 5 5 5 5
6 6 6 7 8 9 10 11 12 13 14 14 15 16 16 16 16 16 15 13 12 11 10 9 8 6 5 5 5 5 4 4 4 4 5 5 5 5 5 4 5 5 5 5 5 5 4 4 3
6 5 5 5 6 7 8 9 10 11 12 12 13 14 15 16 16 16 15 14 13 12 11 11 9 8 6 5 5 4 4 3 3 3 3 4 4 4 4 4 5 5 4 4 4 4 4 3 3
5 4 4 4 5 6 6 8 9 9 10 11 11 12 13 15 15 15 14 14 13 12 12 11 10 9 7 5 5 4 4 4 3 3 3 3 3 3 3 3 4 4 3 3 2 3 2 2 2
6 5 3 3 3 4 5 5 6 7 8 9 10 11 12 13 14 14 14 14 13 12 12 11 11 11 9 6 5 4 4 3 3 3 3 3 3 2 2 2 2 2 3 2 2 2 2 2 1
8 7 6 4 3 2 3 3 3 5 7 8 8 9 10 11 12 13 13 13 13 12 12 11 11 11 11 9 6 5 4 4 3 2 2 2 3 2 2 1 1 2 2 2 2 1 1 1 2
10 9 7 5 4 2 1 1 2 3 4 6 7 7 9 9 10 11 12 12 12 12 11 11 11 10 10 9 8 6 5 3 3 2 1 1 2 2 2 2 2 2 2 2 2 2 2 2 3
11 10 9 8 6 4 3 2 3 3 3 5 6 6 7 8 9 9 10 10 11 11 11 10 11 11 10 9 8 7 6 4 3 2 2 0 1 1 2 3 3 3 3 3 3 4 4 4 4
13 12 11 9 8 6 5 4 4 4 4 4 5 6 7 8 9 9 9 9 10 10 10 10 10 10 10 10 9 7 6 5 3 3 2 2 1 2 3 4 4 4 5 5 5 5 5 5 5
16 14 12 11 9 8 6 6 6 5 5 5 5 5 6 7 8 9 10 10 10 11 10 10 9 10 10 10 9 8 7 5 4 3 3 3 4 5 5 5 5 6 6 7 7 6 6 7 7
18 16 14 12 11 10 9 8 8 7 6 6 6 6 6 7 8 9 9 10 11 11 11 10 10 10 10 10 9 9 8 6 5 4 4 5 5 5 6 6 7 8 8 8 9 8 9 9 10
20 18 16 14 13 12 11 10 10 9 7 7 7 7 7 7 8 8 9 10 10 10 11 10 10 10 10 10 9 9 8 6 5 5 6 6 7 6 7 7 8 9 9 9 10 10 11 11 12
22 19 18 16 15 15 13 11 11 10 9 8 9 8 8 8 8 8 9 10 11 11 11 10 10 10 10 10 10 9 9 8 7 7 7 7 7 7 7 8 8 9 9 10 11 11 12 12 12
23 21 19 18 18 17 15 14 13 11 10 10 10 10 9 9 8 9 10 12 12 12 12 11 10 10 10 10 10 9 9 9 9 8 8 8 8 8 8 9 9 9 9 10 10 11 11 12 13
24 23 21 19 17 17 17 16 14 12 11 11 11 11 10 10 9 10 11 12 13 13 12 11 11 11 11 10 10 10 10 10 10 9 9 9 9 8 9 9 8 8 9 9 10 10 11 12 13
26 25 22 21 19 18 18 17 15 14 13 12 11 11 11 10 10 10 11 12 13 13 12 12 12 12 12 11 11 11 10 10 10 10 10 10 10 10 10 10 9 9 9 10 10 10 11 12 12
28 26 25 23 21 19 18 18 17 15 13 12 12 12 12 12 12 12 12 13 13 13 13 13 13 13 13 12 12 12 12 12 12 12 12 12 12 11 12 12 11 11 11 11 11 12 12 12 13
30 29 27 25 24 19 17 18 18 16 14 13 13 13 13 13 13 13 13 13 13 13 12 12 13 13 13 14 14 13 13 13 13 13 13 13 13 12 13 13 12 12 12 12 12 12 13 13 13
30 29 28 27 25 23 19 20 19 17 16 15 15 15 15 14 13 13 13 13 13 13 13 13 14 14 14 14 14 14 14 14 14 14 14 14 14 14 14 14 14 13 14 14 14 14 14 14 14
Wind_Direction
76 76 76 78 75 76 77 77 76 75 74 74 73 73 73 75 78 78 79 80 79 79 84 90 96 101 104 103 102 100 98 99 100 102 102 102 102 100 99 99 100 99 99 97 94 94 94 94 92
74 74 75 74 76 76 76 76 75 74 73 72 71 71 70 72 74 76 78 79 80 80 85 90 97 103 105 106 106 105 104 103 102 104 105 104 104 101 101 102 102 101 101 99 96 94 93 94 91
74 73 73 74 75 74 73 74 74 73 72 72 70 69 68 67 68 72 75 78 79 81 85 90 95 101 105 108 108 108 109 109 110 109 110 109 106 103 103 102 102 101 101 99 97 95 95 93 91
74 72 70 72 72 71 71 72 73 72 70 70 70 68 66 64 64 67 71 75 76 78 80 85 93 102 106 108 110 114 112 112 115 115 112 110 108 107 105 105 103 102 101 100 97 96 96 94 93
75 72 69 69 70 70 69 70 71 71 68 68 68 66 63 62 60 63 66 68 71 74 77 82 91 102 104 105 108 113 115 115 118 117 112 107 105 106 107 110 107 103 103 102 98 98 98 96 93
79 77 74 70 68 69 69 69 70 70 68 66 65 64 63 61 60 61 64 66 67 70 75 84 91 98 104 103 108 112 115 116 117 117 111 110 110 110 110 111 111 108 108 103 102 102 101 99 97
86 84 77 72 70 68 67 67 69 69 67 65 64 62 61 61 60 59 61 63 64 66 70 81 89 91 100 104 105 108 113 115 117 116 113 114 115 115 115 115 115 115 113 108 107 106 104 101 99
88 81 75 73 72 67 65 65 66 68 67 64 62 61 59 60 59 58 58 59 62 64 66 77 82 85 94 101 99 104 108 111 117 118 115 112 114 117 118 118 120 121 117 112 111 110 107 103 99
89 84 80 76 73 66 63 63 64 66 66 63 60 59 58 57 55 54 55 59 61 62 65 70 72 81 84 94 96 98 104 106 113 115 114 112 110 117 119 119 122 123 119 116 115 112 109 104 100
96 96 87 79 72 66 62 62 63 63 63 61 59 58 57 56 53 52 52 55 56 57 59 64 72 73 81 91 96 95 98 100 106 113 111 110 112 117 118 119 122 121 118 118 117 113 112 105 99
109 103 91 80 71 67 62 61 60 62 61 60 58 58 56 53 51 48 49 51 54 54 55 57 71 76 80 86 87 90 96 99 107 111 114 116 117 122 122 121 122 122 120 120 118 117 114 109 99
118 107 93 82 72 67 64 61 58 60 60 58 56 55 52 49 47 46 46 49 49 48 48 49 64 77 82 84 85 88 92 99 108 112 118 122 123 128 130 130 129 127 125 122 114 111 113 110 102
134 119 100 86 74 69 67 63 59 58 58 56 54 52 49 46 45 46 46 46 49 50 48 50 58 71 77 76 77 84 92 101 114 120 123 126 129 134 139 139 141 138 131 125 118 117 119 115 106
152 137 111 95 82 73 71 65 57 55 55 53 50 48 45 43 42 44 45 45 45 46 48 49 53 58 62 65 67 76 81 98 116 131 132 135 139 138 136 129 140 144 139 132 128 129 129 125 114
177 166 134 108 91 77 72 65 56 50 49 50 47 42 39 41 41 42 42 41 42 44 46 47 47 51 53 57 56 69 77 87 107 124 132 137 141 137 136 137 144 148 148 144 138 134 144 144 133
195 191 187 151 115 88 74 69 57 46 42 44 42 38 35 37 39 39 39 38 38 39 40 42 44 48 49 48 54 61 71 85 93 116 135 142 146 143 146 148 154 168 170 169 162 160 168 173 181
206 204 206 197 158 118 84 77 48 41 35 34 33 32 31 32 35 35 34 34 35 35 36 37 38 43 47 46 51 59 64 67 73 100 135 154 161 165 186 192 193 207 207 209 198 187 203 217 243
216 210 210 214 201 188 134 34 353 18 22 20 19 21 24 26 28 28 29 30 30 31 32 32 31 33 38 43 48 52 53 57 54 76 118 150 165 187 221 230 228 228 228 234 229 231 238 250 263
215 213 217 221 218 218 232 272 303 326 351 3 5 7 11 13 14 16 19 21 23 24 24 26 29 30 29 33 39 37 37 40 31 21 3 18 221 253 262 243 239 243 248 248 249 257 259 267 275
216 215 219 225 222 226 238 256 277 291 314 339 346 348 350 354 356 1 6 9 14 16 13 17 22 21 21 22 25 21 21 20 24 9 356 352 318 286 273 272 263 255 258 260 258 266 268 268 276
220 219 222 229 230 233 242 258 268 277 290 308 321 323 330 339 343 348 355 358 1 4 4 5 10 9 9 9 11 11 6 5 10 359 347 341 330 310 294 283 277 271 265 262 262 264 271 272 275
224 222 225 231 234 241 239 248 265 266 274 289 304 304 309 326 333 338 343 349 355 357 359 3 3 359 358 359 359 359 355 348 348 342 329 325 324 311 301 290 281 275 268 267 269 269 274 278 282
225 226 229 233 236 241 245 240 256 259 261 273 287 291 291 307 319 329 338 345 350 351 352 356 358 354 352 350 350 351 349 339 333 329 321 320 320 313 306 300 292 284 272 272 275 276 276 278 282
225 227 231 235 237 241 244 243 246 254 253 260 271 279 283 292 303 316 325 332 335 339 341 345 347 348 346 344 344 344 343 337 331 325 322 319 318 319 315 309 301 294 281 281 281 279 279 278 283
226 227 230 234 237 242 246 245 244 247 248 251 260 270 274 279 291 305 314 320 324 326 330 334 335 337 337 337 336 334 334 335 329 323 322 318 315 311 313 314 299 296 292 289 288 283 283 282 282
228 230 229 232 241 246 249 248 248 249 247 248 255 264 272 276 287 299 304 310 314 314 317 320 323 324 327 329 327 324 325 328 325 319 320 318 316 316 313 313 300 294 299 299 295 289 289 287 285
228 228 230 235 237 239 248 249 249 251 248 247 250 259 265 273 284 292 298 301 306 308 310 312 315 318 320 322 319 318 320 320 322 318 316 315 313 314 311 310 302 297 298 302 300 297 296 295 293
229 230 230 231 234 238 247 250 251 250 249 250 251 256 261 269 277 284 292 297 298 299 304 309 312 313 315 315 316 315 314 314 316 312 310 309 309 310 307 304 302 297 296 296 297 297 294 294 293
230 230 232 234 237 236 243 251 251 249 249 250 252 255 261 266 273 281 286 293 295 296 301 305 308 308 309 310 310 309 310 310 310 307 306 306 308 308 303 299 298 297 296 296 296 297 296 292 291
231 232 234 236 239 237 235 249 249 247 248 249 251 255 260 265 270 278 282 288 292 294 297 300 304 304 305 305 305 304 303 305 307 306 303 301 303 303 302 300 297 297 297 295 295 295 293 294 294
Height
5917 5915 5915 5915 5915 5915 5913 5911 5910 5908 5908 5906 5905 5904 5904 5904 5904 5905 5902 5900 5900 5899 5899 5898 5898 5897 5897 5897 5896 5896 5896 5896 5896 5896 5896 5896 5897 5897 5897 5897 5898 5898 5898 5899 5899 5899 5899 5899 5899
5919 5919 5919 5919 5919 5918 5916 5914 5912 5911 5910 5908 5907 5907 5906 5905 5905 5904 5902 5902 5902 5901 5901 5900 5899 5899 5899 5898 5898 5898 5897 5897 5897 5897 5898 5898 5898 5898 5899 5899 5899 5900 5900 5900 5900 5901 5901 5901 5901
5922 5922 5922 5923 5922 5920 5919 5917 5915 5913 5912 5911 5910 5909 5908 5907 5906 5905 5905 5904 5903 5903 5902 5902 5901 5901 5900 5900 5900 5899 5899 5899 5899 5899 5899 5899 5899 5900 5900 5901 5901 5901 5901 5902 5902 5902 5902 5902 5903
5925 5925 5926 5927 5924 5923 5921 5919 5917 5916 5914 5913 5912 5912 5910 5909 5908 5907 5906 5906 5905 5904 5904 5903 5903 5902 5902 5901 5901 5900 5900 5900 5900 5900 5900 5900 5901 5901 5902 5902 5902 5903 5903 5903 5904 5904 5904 5904 5904
5928 5929 5931 5929 5927 5926 5924 5922 5920 5918 5917 5916 5915 5913 5912 5911 5910 5909 5908 5907 5907 5906 5905 5905 5904 5904 5903 5902 5902 5902 5902 5902 5902 5902 5902 5902 5902 5903 5903 5903 5904 5904 5904 5905 5905 5905 5905 5905 5905
5931 5934 5935 5932 5930 5928 5926 5924 5922 5921 5919 5918 5917 5916 5914 5913 5912 5911 5910 5909 5908 5907 5906 5906 5905 5905 5904 5904 5903 5903 5903 5903 5903 5903 5903 5903 5903 5904 5904 5905 5905 5905 5906 5906 5906 5907 5907 5907 5907
5935 5937 5936 5934 5933 5931 5929 5927 5925 5923 5922 5921 5919 5918 5916 5915 5914 5913 5911 5910 5910 5909 5908 5907 5907 5906 5905 5905 5905 5905 5905 5904 5904 5904 5904 5904 5905 5905 5905 5906 5906 5906 5907 5907 5908 5908 5908 5908 5908
5937 5939 5938 5937 5936 5934 5932 5930 5928 5926 5925 5924 5922 5920 5919 5918 5916 5915 5914 5912 5911 5911 5909 5909 5908 5907 5907 5906 5906 5906 5906 5906 5906 5906 5906 5906 5906 5906 5907 5907 5907 5907 5908 5908 5909 5909 5910 5910 5910
5939 5943 5941 5939 5938 5936 5934 5932 5931 5929 5927 5926 5924 5923 5922 5920 5918 5917 5915 5914 5913 5912 5911 5910 5909 5909 5908 5908 5907 5907 5907 5907 5907 5907 5907 5907 5907 5907 5908 5908 5908 5909 5909 5909 5910 5910 5911 5911 5911
5941 5944 5942 5941 5940 5938 5936 5934 5933 5931 5930 5928 5927 5925 5923 5922 5920 5919 5918 5916 5915 5914 5913 5911 5911 5910 5909 5909 5908 5908 5908 5908 5908 5908 5908 5908 5909 5909 5909 5909 5909 5910 5910 5910 5911 5911 5912 5912 5912
5942 5943 5942 5942 5941 5939 5938 5936 5935 5933 5932 5931 5929 5928 5926 5924 5922 5921 5919 5918 5916 5915 5914 5912 5911 5911 5911 5910 5910 5909 5909 5909 5909 5909 5910 5910 5910 5910 5910 5910 5911 5911 5911 5912 5912 5912 5913 5913 5913
5943 5943 5943 5943 5942 5941 5940 5938 5937 5936 5935 5933 5932 5930 5928 5926 5924 5923 5921 5920 5918 5917 5915 5914 5913 5912 5912 5911 5911 5911 5910 5910 5910 5910 5910 5911 5911 5911 5912 5912 5912 5912 5912 5912 5913 5913 5913 5914 5914
5943 5944 5944 5944 5943 5942 5941 5940 5939 5938 5936 5935 5934 5932 5930 5928 5926 5924 5923 5921 5920 5918 5916 5915 5914 5913 5913 5912 5912 5911 5911 5911 5911 5911 5911 5912 5912 5912 5912 5913 5913 5913 5913 5913 5913 5914 5914 5914 5915
5944 5944 5944 5944 5944 5943 5943 5942 5941 5939 5938 5937 5936 5934 5932 5930 5929 5927 5925 5923 5922 5920 5918 5916 5915 5915 5914 5913 5913 5912 5912 5912 5912 5912 5912 5913 5913 5913 5913 5913 5913 5913 5914 5914 5914 5914 5915 5915 5915
5943 5945 5945 5945 5945 5945 5944 5944 5943 5941 5940 5938 5937 5936 5934 5933 5931 5929 5927 5925 5924 5922 5920 5918 5917 5916 5915 5914 5914 5913 5913 5913 5913 5913 5913 5913 5914 5914 5914 5914 5914 5914 5915 5915 5915 5915 5915 5915 5916
5943 5945 5946 5946 5945 5945 5947 5947 5945 5943 5941 5940 5939 5938 5936 5934 5933 5931 5929 5927 5925 5923 5922 5920 5918 5917 5916 5915 5914 5914 5914 5913 5913 5914 5914 5914 5914 5914 5914 5914 5915 5915 5915 5915 5915 5916 5916 5916 5916
5942 5945 5946 5946 5946 5946 5946 5946 5945 5944 5943 5941 5940 5939 5938 5936 5934 5933 5931 5929 5927 5925 5923 5921 5920 5918 5917 5916 5915 5914 5914 5914 5914 5914 5914 5914 5914 5914 5915 5915 5915 5915 5915 5915 5915 5916 5916 5916 5916
5942 5944 5945 5945 5945 5946 5946 5946 5945 5944 5943 5942 5941 5940 5939 5938 5936 5934 5932 5930 5928 5927 5925 5923 5921 5920 5918 5917 5916 5915 5915 5914 5914 5914 5914 5914 5914 5915 5915 5915 5915 5914 5915 5915 5915 5915 5915 5915 5916
5940 5942 5943 5944 5944 5945 5945 5946 5945 5944 5944 5943 5942 5941 5940 5939 5937 5935 5934 5932 5930 5928 5926 5925 5923 5921 5920 5918 5917 5916 5915 5915 5915 5915 5914 5914 5914 5915 5915 5915 5915 5914 5915 5915 5915 5915 5915 5915 5915
5937 5939 5941 5942 5942 5944 5944 5945 5945 5944 5944 5943 5942 5942 5940 5939 5938 5936 5935 5933 5931 5929 5927 5926 5924 5923 5921 5920 5918 5917 5916 5915 5915 5915 5915 5914 5914 5914 5914 5914 5914 5914 5914 5914 5914 5914 5914 5914 5914
5934 5937 5939 5940 5941 5942 5943 5945 5944 5944 5944 5943 5942 5941 5940 5939 5938 5937 5935 5934 5932 5930 5928 5926 5925 5924 5922 5921 5919 5918 5916 5916 5915 5915 5915 5914 5914 5913 5913 5913 5913 5913 5913 5913 5913 5913 5912 5912 5912
5931 5934 5936 5937 5939 5941 5942 5945 5944 5943 5943 5943 5942 5941 5940 5939 5938 5937 5935 5934 5932 5930 5929 5927 5925 5924 5923 5921 5920 5918 5917 5916 5915 5915 5914 5914 5913 5913 5912 5912 5911 5911 5911 5911 5911 5910 5910 5911 5910
5927 5930 5932 5935 5937 5939 5940 5942 5944 5942 5942 5942 5941 5940 5939 5939 5938 5937 5935 5934 5932 5931 5929 5927 5925 5924 5923 5921 5920 5918 5917 5916 5915 5914 5914 5913 5912 5911 5911 5910 5910 5909 5909 5909 5909 5908 5908 5908 5908
5923 5927 5929 5931 5934 5936 5937 5939 5941 5940 5940 5940 5940 5939 5938 5938 5937 5936 5935 5934 5932 5931 5929 5927 5926 5924 5923 5921 5920 5918 5917 5915 5914 5914 5913 5912 5911 5910 5909 5909 5908 5908 5907 5907 5906 5906 5905 5905 5905
5919 5924 5927 5928 5930 5933 5934 5935 5937 5937 5938 5938 5938 5937 5937 5937 5936 5935 5934 5933 5931 5930 5929 5927 5925 5924 5922 5921 5919 5918 5916 5915 5914 5913 5912 5911 5910 5909 5908 5907 5906 5906 5905 5904 5903 5903 5902 5902 5902
5916 5920 5924 5927 5929 5931 5929 5931 5934 5934 5935 5935 5935 5935 5935 5935 5934 5934 5933 5931 5930 5929 5927 5926 5924 5923 5921 5920 5918 5917 5915 5914 5913 5912 5910 5909 5908 5907 5906 5905 5904 5903 5903 5902 5901 5900 5900 5899 5898
5910 5914 5919 5922 5924 5927 5927 5928 5929 5930 5931 5932 5933 5933 5933 5933 5933 5932 5931 5930 5929 5927 5926 5925 5923 5921 5920 5919 5917 5916 5914 5913 5911 5910 5909 5907 5906 5905 5904 5903 5902 5902 5901 5900 5899 5898 5897 5896 5895
5906 5910 5913 5916 5919 5922 5924 5924 5926 5926 5928 5929 5929 5930 5930 5930 5930 5930 5929 5928 5927 5925 5924 5923 5921 5920 5918 5917 5915 5914 5912 5911 5910 5908 5907 5906 5904 5903 5902 5901 5900 5899 5898 5897 5897 5896 5895 5893 5892
5900 5904 5907 5911 5914 5919 5922 5923 5921 5923 5924 5925 5926 5927 5927 5927 5927 5927 5926 5925 5924 5923 5922 5921 5919 5918 5916 5915 5914 5912 5911 5909 5908 5906 5905 5904 5902 5901 5900 5898 5897 5897 5896 5895 5893 5892 5891 5890 5889
5894 5898 5902 5906 5909 5912 5917 5920 5916 5918 5920 5921 5922 5923 5923 5924 5924 5924 5923 5923 5922 5921 5920 5919 5917 5916 5914 5913 5911 5910 5909 5907 5905 5904 5902 5901 5900 5898 5897 5896 5895 5894 5892 5891 5890 5889 5888 5887 5886